Home   Weather   Atlanta   Past weeks

Flag for USA Past Weather in Atlanta, Georgia, USA — Yesterday and Last 2 Weeks

Now
45 °F

Fog.


Feels Like: 45 °F
Forecast: 53 / 72 °F
Wind: No wind

Location: Fulton County Airport-Brown Field

Current Time: Jan 16, 2017 at 6:13:36 am

Latest Report: Jan 16, 2017 at 4:53 am


Visibility: 6 mi

Pressure: 30.24 "Hg

Humidity: 93%

Dew Point: 43 °F

Location of AtlantaLocation

Past Weather in Atlanta — Graph

°F

Atlanta Temperature Yesterday

Maximum temperature yesterday: 73 °F (at 2:53 pm)
Minimum temperature yesterday: 45 °F (at 7:53 am)
Average temperature yesterday: 56 °F

High & Low Weather Summary for the Past Weeks

 TemperatureHumidityPressure
High74 °F (Jan 14, 2:53 pm)100% (Jan 14, 10:01 am)30.76 "Hg (Jan 14, 10:01 am)
Low15 °F (Jan 8, 7:53 am)18% (Jan 9, 3:53 pm)29.81 "Hg (Jan 3, 3:53 pm)
Average47 °F72%30.22 "Hg
* Reported Jan 1 4:53 am — Jan 16 4:53 am, Atlanta, Weather by CustomWeather, © 2017

Note: Actual official high and low records may vary slightly from our data, if they occured in-between our weather recording intervals... More about our weather records

Advertising

Atlanta Weather History for the Previous 24 Hours

Scroll right to see more
 ConditionsComfort  
Time TempWeatherWind HumidityBarometerVisibility
4:53 am
Mon, Jan 16
45 °FFog.No wind93%30.24 "Hg6 mi
3:53 am47 °FClear.No wind90%30.24 "Hg9 mi
2:53 am47 °FClear.No wind90%30.24 "Hg10 mi
1:53 am48 °FClear.No wind89%30.24 "Hg8 mi
12:53 am49 °FClear.No wind86%30.23 "Hg9 mi
11:53 pm
Sun, Jan 15
49 °FClear.No wind90%30.24 "Hg9 mi
10:53 pm51 °FClear.No wind86%30.24 "Hg9 mi
9:53 pm53 °FClear.No wind80%30.25 "Hg10 mi
8:53 pm54 °FClear.No wind77%30.24 "Hg10 mi
7:53 pm57 °FClear.No wind72%30.25 "Hg10 mi
6:53 pm60 °FClear.No wind65%30.24 "Hg10 mi
5:53 pm66 °FClear.No wind50%30.23 "Hg10 mi
4:53 pm70 °FSunny.5 mph42%30.22 "Hg10 mi
3:53 pm72 °FPassing clouds.No wind40%30.22 "Hg10 mi
2:53 pm73 °FSunny.5 mph41%30.22 "Hg10 mi
1:53 pm72 °FPassing clouds.5 mph44%30.24 "Hg10 mi
12:53 pm71 °FSunny.3 mph44%30.27 "Hg10 mi
11:53 am68 °FSunny.No wind57%30.31 "Hg10 mi
10:53 am63 °FSunny.No wind68%30.33 "Hg10 mi
9:53 am54 °FSunny.No wind86%30.34 "Hg10 mi
8:53 am48 °FSunny.No wind93%30.34 "Hg7 mi
7:53 am45 °FPassing clouds.No wind93%30.33 "Hg7 mi
6:53 am46 °FClear.No wind93%30.32 "Hg7 mi
Weather by CustomWeather, © 2017

See weather overviewHow to use our weather pages